METEOR 2-7 DEB, 43302

Orbit data source: Space-Track

METEOR 2-7 DEB, 43302 is space debris in LEO originally from a launch on Thu, 14 May 1981 UTC launched from the Plesetsk Missile And Space Complex (PKMTR). Debris objects in space refer to the collection of defunct objects orbiting the Earth. Examples of debris include non-operational satellites, rocket bodies, and fragments generated from explosions, collisions, or faulty payload assembly.

Loading next visibility...
METEOR 2-7 DEB details
Identifier
43302, 1981-043Z
Orbit
LEO
Last TLE update1 week ago
Origin
Flag of CISKVR (CIS)
ManufacturerUnknown
MissionSpacecraft
Bus & MotorUnknown
MassUnknown
Launch date (UTC)
1981-05-14 (44 years ago)
Launch vehicleUnknown
Launch site
Plesetsk Missile And Space Complex (PKMTR)
Object type
Payload
Rocket body
Debris
Shape & HBRUnknown
Radar Cross SectionSmall (<0.1 m²)

Expand to show TLE details & history

TLE from 1 week ago
0 METEOR 2-7 DEB
1 43302U 81043Z   24354.69390627  .00008399  00000-0  33210-2 0  9998
2 43302  81.2594 245.7328 0033916 180.4773 179.6382 14.28578284453597
Epoch: 2024-12-19T16:39Z
Definitive object data (Epoch: 2024-12-19T16:39:13.501Z)
Latitude-0.00003°
Longitude-92.84356°
Altitude823.75 km
Speed7.429 km/s
True Right ascension16h 22m 55s
True Declination0° 00' 00"
Sunlit
Object was in daylight at TLE epoch
Visualization TLE readout
Latitude37.41614°
Longitude73.5359°
Altitude778.127 km
Speed7.48 km/s
Apparent Right ascension02h 31m 10s
Apparent Declination1° 26' 15"
Sunlit
Object is in full shadow
Visualization observer readout
Local Sidereal Time13:24:23
Azimuth335.618° NNW
Elevation-45.916°
Doppler factor1
Orbital elements
Apogee altitude817.959 km
Perigee altitude769.312 km
Semi-major axis7,171.773 km
Eccentricity0.0033916
Inclination81.2594°
RAAN245.7328°
Arg. of periapsis180.4773°
True anomaly179.64064°
Mean anomaly179.6382°
Eccentric anomaly179.63942°
Mean motion3.57358 °/min
BSTAR0.003321
Orbital period100.74 mins
Loading maneuver chart data...
Loading historical data...
Loading historical data...
Loading historical data...
Loading historical data...
Loading historical data...
Loading historical data...
Loading historical data...

METEOR 2-7 DEB Visibility forecast

Observer location: undefined°, undefined

Span
Click to sort rows by Start time (UTC) header in descending order
Start Az.
Max El. time (UTC)
Max El. Az.
Max El.
End time (UTC)
End Az.
10 mins2024-12-26 16:50:36.628Z183.084° SSW2024-12-26 16:55:36.628Z132.089° SE44.307°2024-12-26 17:00:36.628Z12.082° NNE
8 mins2024-12-27 03:24:36.628Z9.19° NNE2024-12-27 03:28:36.628Z85.755° E35.281°2024-12-27 03:32:36.628Z146.561° SSE
5 mins2024-12-27 05:07:36.628Z301.993° NW2024-12-27 05:09:36.628Z274.14° WNW18.11°2024-12-27 05:12:36.628Z234.867° WSW
|